Location: Boquerón
(10.0687°N, 67.9212°W)
Time: 10:16:11
(UTC+00:00)

ATLAS 5 CENTAUR R/B - Pass Details

Date: 29 May 2024
Orbit: 419 x 1168 km, 63.3° (Epoch: 16 June)

Event Time Altitude Azimuth Distance (km) Brightness Sun altitude
Rises 23:21:09 0° 321° (NW) 3,539 6.7 -8.1°
Reaches altitude 10° 23:23:41 10° 314° (NW) 2,701 6.2 -8.6°
Maximum altitude 23:29:41 40° 247° (WSW) 1,530 3.9 -10.0°
Drops below altitude 10° 23:36:28 10° 180° (S) 3,041 4.8 -11.5°
Sets 23:39:29 0° 173° (S) 4,030 5.4 -12.2°
